SB KEPS @ AMSAT $ORB15106.O Orbital Elements 15106.OSCAR
HR AMSAT ORBITAL ELEMENTS FOR OSCAR SATELLITES FROM WA5QGD FORT WORTH,TX April 16, 2015 BID: ORB15106.O TO ALL RADIO AMATEURS BT
Satellite: AO-07 Catalog number: 07530 Epoch time: 15106.15177178 Element set: 999 Inclination: 101.5152 deg RA of node: 083.4765 deg Eccentricity: 0.0012414 Arg of perigee: 064.7244 deg Mean anomaly: 356.1968 deg Mean motion: 12.53613516 rev/day Decay rate: -3.2e-07 rev/day^2 Epoch rev: 84948 Checksum: 307
Satellite: FO-29 Catalog number: 24278 Epoch time: 15106.49957840 Element set: 999 Inclination: 098.5346 deg RA of node: 083.6543 deg Eccentricity: 0.0349632 Arg of perigee: 230.6572 deg Mean anomaly: 284.7607 deg Mean motion: 13.53049508 rev/day Decay rate: -1.6e-07 rev/day^2 Epoch rev: 92168 Checksum: 353
Satellite: SO-33 Catalog number: 25509 Epoch time: 15105.52975463 Element set: 999 Inclination: 031.4339 deg RA of node: 246.7988 deg Eccentricity: 0.0348248 Arg of perigee: 244.0620 deg Mean anomaly: 112.3725 deg Mean motion: 14.29965324 rev/day Decay rate: 8.64e-06 rev/day^2 Epoch rev: 86044 Checksum: 337
Satellite: RS-22 Catalog number: 27939 Epoch time: 15106.51324961 Element set: 999 Inclination: 097.8347 deg RA of node: 271.1768 deg Eccentricity: 0.0012245 Arg of perigee: 222.2145 deg Mean anomaly: 137.8125 deg Mean motion: 14.65942281 rev/day Decay rate: 1.131e-05 rev/day^2 Epoch rev: 61715 Checksum: 311
Satellite: HO-68 Catalog number: 36122 Epoch time: 15106.60263832 Element set: 999 Inclination: 100.2021 deg RA of node: 153.5862 deg Eccentricity: 0.0006942 Arg of perigee: 261.2208 deg Mean anomaly: 098.8130 deg Mean motion: 13.16325883 rev/day Decay rate: -6.0e-07 rev/day^2 Epoch rev: 25635 Checksum: 284
Satellite: AO-73 Catalog number: 39444 Epoch time: 15106.16978929 Element set: 999 Inclination: 097.7362 deg RA of node: 171.1937 deg Eccentricity: 0.0059387 Arg of perigee: 339.2258 deg Mean anomaly: 020.6541 deg Mean motion: 14.79975718 rev/day Decay rate: 2.911e-05 rev/day^2 Epoch rev: 7424 Checksum: 367
Satellite: EO-79 Catalog number: 40025 Epoch time: 15106.57969882 Element set: 999 Inclination: 097.9572 deg RA of node: 006.7470 deg Eccentricity: 0.0014204 Arg of perigee: 030.5900 deg Mean anomaly: 329.6127 deg Mean motion: 14.86879057 rev/day Decay rate: 2.830e-05 rev/day^2 Epoch rev: 4464 Checksum: 337
/EX SB KEPS @ AMSAT $ORB15106.D Orbital Elements 15106.MICROS
HR AMSAT ORBITAL ELEMENTS FOR THE MICROSATS FROM WA5QGD FORT WORTH,TX April 16, 2015 BID: ORB15106.D TO ALL RADIO AMATEURS BT
Satellite: UO-11 Catalog number: 14781 Epoch time: 15106.47274178 Element set: 999 Inclination: 097.8081 deg RA of node: 165.0564 deg Eccentricity: 0.0007156 Arg of perigee: 272.6774 deg Mean anomaly: 087.3621 deg Mean motion: 14.82295260 rev/day Decay rate: 1.287e-05 rev/day^2 Epoch rev: 67288 Checksum: 341
Satellite: AO-16 Catalog number: 20439 Epoch time: 15105.83752668 Element set: 999 Inclination: 098.5370 deg RA of node: 042.9613 deg Eccentricity: 0.0010693 Arg of perigee: 351.4465 deg Mean anomaly: 071.9578 deg Mean motion: 14.32521625 rev/day Decay rate: 2.31e-06 rev/day^2 Epoch rev: 31781 Checksum: 317
Satellite: LO-19 Catalog number: 20442 Epoch time: 15105.42025123 Element set: 999 Inclination: 098.5080 deg RA of node: 042.2969 deg Eccentricity: 0.0011393 Arg of perigee: 340.1401 deg Mean anomaly: 019.9338 deg Mean motion: 14.32715508 rev/day Decay rate: 2.32e-06 rev/day^2 Epoch rev: 31795 Checksum: 283
Satellite: AO-27 Catalog number: 22825 Epoch time: 15105.85594639 Element set: 999 Inclination: 098.7030 deg RA of node: 055.9693 deg Eccentricity: 0.0009289 Arg of perigee: 126.4154 deg Mean anomaly: 291.6474 deg Mean motion: 14.29862065 rev/day Decay rate: 1.83e-06 rev/day^2 Epoch rev: 12403 Checksum: 339
Satellite: IO-26 Catalog number: 22826 Epoch time: 15105.49528365 Element set: 999 Inclination: 098.6972 deg RA of node: 055.7843 deg Eccentricity: 0.0009902 Arg of perigee: 120.3542 deg Mean anomaly: 239.8620 deg Mean motion: 14.30176672 rev/day Decay rate: 1.97e-06 rev/day^2 Epoch rev: 12412 Checksum: 323
Satellite: GO-32 Catalog number: 25397 Epoch time: 15106.11205071 Element set: 999 Inclination: 098.5140 deg RA of node: 058.5207 deg Eccentricity: 0.0002125 Arg of perigee: 119.2593 deg Mean anomaly: 304.8930 deg Mean motion: 14.23534520 rev/day Decay rate: 1.13e-06 rev/day^2 Epoch rev: 87096 Checksum: 283
Satellite: NO-44 Catalog number: 26931 Epoch time: 15105.28810729 Element set: 999 Inclination: 067.0524 deg RA of node: 339.3413 deg Eccentricity: 0.0006139 Arg of perigee: 264.4182 deg Mean anomaly: 095.6219 deg Mean motion: 14.30291170 rev/day Decay rate: 2.15e-06 rev/day^2 Epoch rev: 70680 Checksum: 300
Satellite: SO-50 Catalog number: 27607 Epoch time: 15106.19059840 Element set: 999 Inclination: 064.5567 deg RA of node: 028.0874 deg Eccentricity: 0.0078271 Arg of perigee: 300.4226 deg Mean anomaly: 058.9158 deg Mean motion: 14.74630929 rev/day Decay rate: 1.561e-05 rev/day^2 Epoch rev: 66214 Checksum: 329
Satellite: CO-55 Catalog number: 27844 Epoch time: 15105.64348758 Element set: 999 Inclination: 098.6968 deg RA of node: 115.0606 deg Eccentricity: 0.0010821 Arg of perigee: 118.5777 deg Mean anomaly: 357.3222 deg Mean motion: 14.21763576 rev/day Decay rate: 4.14e-06 rev/day^2 Epoch rev: 61155 Checksum: 335
Satellite: CO-57 Catalog number: 27848 Epoch time: 15105.51388859 Element set: 999 Inclination: 098.7066 deg RA of node: 114.8076 deg Eccentricity: 0.0010627 Arg of perigee: 125.5091 deg Mean anomaly: 025.9277 deg Mean motion: 14.21415597 rev/day Decay rate: 3.50e-06 rev/day^2 Epoch rev: 61144 Checksum: 334
Satellite: AO-51 Catalog number: 28375 Epoch time: 15105.84577768 Element set: 999 Inclination: 098.2880 deg RA of node: 048.0991 deg Eccentricity: 0.0083226 Arg of perigee: 157.0883 deg Mean anomaly: 203.4054 deg Mean motion: 14.41628287 rev/day Decay rate: 2.82e-06 rev/day^2 Epoch rev: 56750 Checksum: 347
Satellite: CP3 Catalog number: 31129 Epoch time: 15106.35999501 Element set: 999 Inclination: 097.9749 deg RA of node: 074.8321 deg Eccentricity: 0.0097562 Arg of perigee: 145.7229 deg Mean anomaly: 018.4187 deg Mean motion: 14.55660779 rev/day Decay rate: 1.529e-05 rev/day^2 Epoch rev: 42412 Checksum: 346
Satellite: CO-65 Catalog number: 32785 Epoch time: 15105.86872818 Element set: 999 Inclination: 097.6562 deg RA of node: 151.7123 deg Eccentricity: 0.0011901 Arg of perigee: 272.0958 deg Mean anomaly: 197.2674 deg Mean motion: 14.86647153 rev/day Decay rate: 2.398e-05 rev/day^2 Epoch rev: 37697 Checksum: 367
Satellite: PRISM Catalog number: 33493 Epoch time: 15106.63897098 Element set: 999 Inclination: 098.2529 deg RA of node: 301.0545 deg Eccentricity: 0.0016931 Arg of perigee: 168.5934 deg Mean anomaly: 191.5686 deg Mean motion: 14.92740999 rev/day Decay rate: 6.078e-05 rev/day^2 Epoch rev: 33739 Checksum: 365
Satellite: SOHLA-1 Catalog number: 33496 Epoch time: 15105.88961108 Element set: 999 Inclination: 098.2022 deg RA of node: 233.2788 deg Eccentricity: 0.0006429 Arg of perigee: 013.6783 deg Mean anomaly: 102.8246 deg Mean motion: 14.71291955 rev/day Decay rate: 7.83e-06 rev/day^2 Epoch rev: 33401 Checksum: 317
Satellite: TISAT-1 Catalog number: 36799 Epoch time: 15106.22490434 Element set: 999 Inclination: 098.0127 deg RA of node: 205.9088 deg Eccentricity: 0.0013856 Arg of perigee: 055.2592 deg Mean anomaly: 359.0864 deg Mean motion: 14.88110223 rev/day Decay rate: 5.855e-05 rev/day^2 Epoch rev: 25774 Checksum: 335
Satellite: STUDSAT Catalog number: 36801 Epoch time: 15106.21638872 Element set: 999 Inclination: 098.0549 deg RA of node: 222.3636 deg Eccentricity: 0.0004789 Arg of perigee: 349.4688 deg Mean anomaly: 073.7172 deg Mean motion: 15.09354801 rev/day Decay rate: 3.9784e-04 rev/day^2 Epoch rev: 25861 Checksum: 347
Satellite: ALMASAT-1 Catalog number: 38078 Epoch time: 15106.52027834 Element set: 999 Inclination: 069.4591 deg RA of node: 035.5446 deg Eccentricity: 0.0496663 Arg of perigee: 342.3947 deg Mean anomaly: 016.0512 deg Mean motion: 14.74733840 rev/day Decay rate: 7.8628e-04 rev/day^2 Epoch rev: 16593 Checksum: 344
Satellite: CUBEBUG-1 Catalog number: 39153 Epoch time: 15106.45787040 Element set: 999 Inclination: 098.0180 deg RA of node: 191.0044 deg Eccentricity: 0.0018795 Arg of perigee: 093.3396 deg Mean anomaly: 266.9965 deg Mean motion: 14.79026448 rev/day Decay rate: 2.932e-05 rev/day^2 Epoch rev: 10635 Checksum: 333
Satellite: ESTCUBE-1 Catalog number: 39161 Epoch time: 15106.57784136 Element set: 999 Inclination: 098.0715 deg RA of node: 190.0460 deg Eccentricity: 0.0010401 Arg of perigee: 145.0473 deg Mean anomaly: 215.1423 deg Mean motion: 14.71003608 rev/day Decay rate: 1.620e-05 rev/day^2 Epoch rev: 10418 Checksum: 262
Satellite: DUCHIFAT-1 Catalog number: 40021 Epoch time: 15106.50504606 Element set: 999 Inclination: 097.9587 deg RA of node: 006.9113 deg Eccentricity: 0.0014908 Arg of perigee: 031.7518 deg Mean anomaly: 328.4594 deg Mean motion: 14.87630986 rev/day Decay rate: 4.218e-05 rev/day^2 Epoch rev: 4463 Checksum: 314
Satellite: NANOSATCBR1 Catalog number: 40024 Epoch time: 15106.41151433 Element set: 999 Inclination: 097.9580 deg RA of node: 006.6585 deg Eccentricity: 0.0014095 Arg of perigee: 031.7634 deg Mean anomaly: 328.4445 deg Mean motion: 14.87263403 rev/day Decay rate: 3.333e-05 rev/day^2 Epoch rev: 4461 Checksum: 287
Satellite: DTUSAT-2 Catalog number: 40030 Epoch time: 15106.38731148 Element set: 999 Inclination: 097.9562 deg RA of node: 006.3403 deg Eccentricity: 0.0013243 Arg of perigee: 026.0154 deg Mean anomaly: 334.1693 deg Mean motion: 14.86493645 rev/day Decay rate: 2.902e-05 rev/day^2 Epoch rev: 4460 Checksum: 284
